Regional Weather Roundup
Issued by NWS

Home | Current Version | Previous Version | Text Only | Print | Product List | Glossary On
Versions: 1 2 3 4 5 6 7 8 9 10 11 12 13 14 15 16 17 18 19 20 21 22 23 24 25 26 27 28 29 30 31 32 33 34 35 36 37 38 39 40 41 42 43 44 45 46 47 48 49 50
000
ASUS44 KLUB 220701
RWRTX
WEST TEXAS WEATHER ROUNDUP
NATIONAL WEATHER SERVICE LUBBOCK TX
200 AM CDT FRI MAY 22 2015

NOTE: "FAIR" INDICATES FEW OR NO CLOUDS BELOW 12,000 FEET WITH NO
SIGNIFICANT WEATHER AND/OR OBSTRUCTIONS TO VISIBILITY.

TXZ004-006>008-010-012-014-016-OKZ002-220800-
TEXAS PANHANDLE/OKLAHOMA PANHANDLE

CITY           SKY/WX    TMP DP  RH WIND       PRES   REMARKS
AMARILLO       TSTM      50  49  96 W13       30.23R FOG
BORGER         LGT RAIN  52  49  89 CALM      30.18R
DALHART        CLOUDY    50  48  93 S9        30.18F FOG
GUYMON         RAIN      51  50  96 SE8       30.15S FOG
$$

TXZ026-029-035-045-048-220800-
SOUTHERN PANHANDLE/SOUTH PLAINS/ROLLING PLAINS

CITY           SKY/WX    TMP DP  RH WIND       PRES   REMARKS
CHILDRESS      CLOUDY    57  54  89 CALM      30.13F
LUBBOCK        TSTM      52  51  97 SE5       30.14R
$$

TXZ052-054-060>062-072-078-127-140-154-169-220800-
PERMIAN BASIN/CONCHO VALLEY/BIG COUNTRY/EDWARDS PLATEAU

CITY           SKY/WX    TMP DP  RH WIND       PRES   REMARKS
ABILENE        CLOUDY    58  56  93 SE7       30.14R FOG
JUNCTION       CLOUDY    61  60  97 E7        30.11F FOG
MIDLAND        CLOUDY    58  56  93 E6        30.12R
ODESSA         LGT RAIN  57  55  93 E5        30.13R FOG
SAN ANGELO     CLOUDY    61  58  90 E10       30.11F
WINK           CLOUDY    56  53  90 NE9       30.09F FOG
$$

TXZ055-058-074-075-080-082-220800-
FAR WEST/SOUTHWEST MOUNTAINS/TRANS PECOS

CITY           SKY/WX    TMP DP  RH WIND       PRES   REMARKS
DRYDEN           N/A     65  64  97 CALM      30.04F
EL PASO        CLEAR     58  50  75 S3        30.05R
FORT STOCKTON  CLOUDY    57  57 100 N9        30.10S FOG
GUADALUPE PASS LGT RAIN  47  47 100 NE26      30.14R VSB 1/4
MARFA          CLOUDY   N/A N/A N/A SE3       30.15F
$$

TXZ014-016-019-021>030-083-220800
TEXAS TECH WEST TEXAS MESONET/TEXAS PANHANDLE/NORTHERN SOUTH PLAINS

CITY           SKY/WX    TMP DP  RH WIND       PRES   REMARKS
ABERNATHY 5ENE   N/A     51  49  95 S5        30.16R
AMARILLO 9NNE  LGT RAIN  50  49  99 W10       30.23R
AMARILLO 7SSE    N/A     49  49  99 W9        30.23R
AMHERST 1NE      N/A     50  49  98 W1        30.18F
BOOTLEG 11WNW    N/A     47  46  97 N7        30.15F
CANADIAN 6E      N/A     53  52  97 NW2       30.16F
CAPROCK CYN SP   N/A     53  52  95 SE3       30.15R
CHILDRESS 2NNE   N/A     56  54  90 S1        30.12F
CLARENDON 2WSW   N/A     53  49  87 E1        30.16R
CLAUDE 12SW      N/A     50  49  97 SE5       30.16R
DIMMITT 2NE      N/A     48  47  97 CALM      30.18F
FLOYDADA 2NNE    N/A     51  50  97 SE8       30.14R
FRIONA 2NE       N/A     49  48  97 SE5       30.19F
GOODLETT 3W      N/A     58  53  84 CALM      30.11F
HART 3N          N/A     49  48  97 W3        30.19F
HEREFORD 2NW   RAIN      49  47  95 CALM      30.19F
MCLEAN 1E        N/A     52  50  93 N2        30.15S
MEMPHIS 1NE      N/A     56  52  86 NE2       30.13S
MULESHOE 2SSW    N/A     50  49  98 NW1       30.18F
OLTON 6S       LGT RAIN  50  48  93 W1        30.18F
PALO DURO SP   LGT RAIN  50  49  96 W8        30.23R
PAMPA 2E       LGT RAIN  50  49  96 E6        30.16F
PLAINVIEW 1S   LGT RAIN  51  50  97 W7        30.18R
SILVERTON 7ESE   N/A     52  50  94 E9        30.14S
TULIA 2ENE     RAIN      50  50  98 SW7       30.20R
UMBARGER 3NNE    N/A     48  48  99 W5        30.22F
$$

TXZ033>036-039>041-045>048-220800
TEXAS TECH WEST TEXAS MESONET/SOUTH PLAINS

CITY           SKY/WX    TMP DP  RH WIND       PRES   REMARKS
AIKEN 3WSW       N/A     51  51  99 SE5       30.16R
ANDREWS 2NE      N/A     55  53  94 E3        30.14F
ANTON 6SSW     RAIN      50  50  97 S7        30.19R
BROWNFIELD 2S  LGT RAIN  51  51  97 W9        30.18R
DENVR CTY 7WNW   N/A     50  49  97 E9        30.11F
GAIL 2ESE        N/A     54  53  95 E7        30.12S
LAMESA 2SE       N/A     54  53  98 E7        30.15R
LEVELLAND 4S   LGT RAIN  51  49  94 CALM      30.17S
LUBBOCK 3WNW     N/A     52  50  93 SE2       30.14S
MORTON 1ENE      N/A     50  50  99 N3        30.17F
ODONNELL 1N    LGT RAIN  53  51  95 SE9       30.14R
PLAINS 3N      LGT RAIN  51  50  97 E9        30.13F
RALLS 1SE        N/A     52  51  97 SE9       30.14F
REESE CENTER   LGT RAIN  50  49  97 W12       30.18R
SEAGRAVES 1SW  LGT RAIN  52  51  98 NW2       30.16F
SEMINOLE 2NNE    N/A     53  52  97 NW2       30.16S
SLATON 2NE       N/A     52  51  97 E10       30.13S
SNYDER 3E        N/A     54  53  98 E9        30.11S
SUNDOWN 8SW    LGT RAIN  50  50  97 CALM      30.16F
TAHOKA 3NNE      N/A     53  52  97 SE12      30.13S
WOLFFORTH 6SSW LGT RAIN  52  51  99 SW5       30.17R
$$

TXZ031-032-036>038-042>044-220800-
TEXAS TECH WEST TEXAS MESONET/ROLLING PLAINS

CITY           SKY/WX    TMP DP  RH WIND       PRES   REMARKS
ASPERMONT 3NE    N/A     57  55  92 E5        30.11F
FLUVANNA 3WNW    N/A     54  52  93 E6        30.13R
GRAHAM 5SSW      N/A     53  52  96 SE8       30.13R
GUTHRIE 10WSW    N/A     56  53  92 SE2       30.12S
HASKELL 1NW      N/A     58  53  81 SE9       30.12R
JAYTON 1SSE      N/A     55  54  94 E2        30.13R
KNOX CITY 3NW    N/A     59  54  83 SE6       30.11F
LK A HENRY 1NW   N/A     55  54  95 E3        30.12S
NORTHFIELD 1S    N/A     56  55  97 SW1       30.14R
ODELL 4ENE       N/A     60  56  86 E6        30.12S
PADUCAH 10SW     N/A     56  53  91 S5        30.12R
POST 1NE         N/A     54  53  95 E6        30.13R
SEYMOUR 3NW      N/A     61  54  78 SE6       30.11S
SPUR 1W          N/A     54  52  92 SE3       30.12F
WEINERT 2NNE     N/A     59  55  87 SE13      30.11F
WHITE RVR 6NE    N/A     53  51  95 SE6       30.12F
$$

TXZ052-054-060>062-072-078-127-140-154-169-220800-
TEXAS TECH WEST TEXAS MESONET/PERMIAN BASIN/
CONCHO VALLEY/BIG COUNTRY/EDWARDS PLATEAU

CITY           SKY/WX    TMP DP  RH WIND       PRES   REMARKS
COYANOSA 2N      N/A     58  58  99 N6        30.10F
JUNCTION 1SSW    N/A     61  60  97 E2        30.12F
MERTZON 3NNE     N/A     60  57  92 E7        30.12F
SAN ANGELO 7NW   N/A     60  56  89 E9        30.12S
STRLNG CT 4WSW   N/A     58  56  94 E8        30.12F
ST LAWRNCE 5SW   N/A     58  56  94 E17       30.09F
SWEETWATR 11SW   N/A     56  55  98 E12       30.13F
WALL 1E          N/A     59  56  89 NE7       30.13S
$$

TXZ055-058-074-075-080-082-220800-
TEXAS TECH WEST TEXAS MESONET/FAR WEST/SOUTHWEST MOUNTAINS/TRANS PECOS

CITY           SKY/WX    TMP DP  RH WIND       PRES   REMARKS
PRSMN GAP BBNP   N/A     61  60  94 N10       30.07S
$$



USA.gov is the U.S. government's official web portal to all federal, state and local government web resources and services.